Location: Frontier Park
(40.7025°N, 73.4258°W)
Time: 01:51:58
(UTC+00:00)

Daily predictions for brighter satellites

Satellite Brightness Start Highest point End
(mag) Time Altitude Azimuth Time Altitude Azimuth Time Altitude Azimuth
MOS 1-B Rocket 4.3 00:22:44 10° NNE 00:29:43 57° E 00:35:42 10° S
Cosmos 1417 Rocket 4.5 00:26:18 10° S 00:32:29 76° E 00:38:38 10° N
IRIS 3.4 00:31:28 10° W 00:33:48 84° S 00:36:18 10° ESE
Cosmos 2082 Rocket 4.3 00:34:12 10° NNE 00:36:25 12° NE 00:38:38 10° ENE
Cosmos 1606 3.5 00:33:07 10° SSW 00:36:49 55° W 00:40:33 10° N
Cosmos 1503 Rocket 3.9 00:32:21 10° SSW 00:37:30 76° ESE 00:42:42 10° NNE
CZ-2C R/B 4.4 00:32:36 10° N 00:37:35 38° WNW 00:42:39 10° SW
Cosmos 1743 Rocket 4.1 00:33:18 10° NNW 00:37:37 64° W 00:41:56 10° S
Helios 1A Rocket 3.4 00:34:16 10° S 00:38:22 66° WSW 00:42:30 10° NNW
CZ-4 R/B 4.2 00:40:08 10° SW 00:42:42 16° W 00:45:16 10° NW
Ariane Rocket 3.3 00:37:51 10° SE 00:42:43 50° ENE 00:47:36 10° N
USA 290 2.1 00:39:58 10° NNW 00:43:13 82° ENE 00:46:24 10° SSE
COSMOS 2406 4.4 00:45:30 10° N 00:50:19 28° NE 00:54:51 11° ESE
Intercosmos 25 Rocket 3.6 00:45:27 10° N 00:50:39 81° W 00:54:09 10° S
DELTA 2 R/B (1) 4.3 00:47:37 10° W 00:52:50 42° SSW 00:57:37 12° SE
Cosmos 1933 3.3 00:49:38 10° S 00:53:40 83° E 00:57:42 10° N
Resurs 1-3 3.8 00:50:24 10° SSE 00:54:40 57° ENE 00:58:59 10° N
Tianhe-1 2.8 00:53:44 10° S 00:55:37 15° SSE 00:56:11 14° SE
Cosmos 1437 3.5 00:54:19 12° SSE 00:56:26 26° E 00:58:52 10° NE
Cosmos 1666 Rocket 3.9 00:53:10 10° N 00:57:25 48° E 01:01:26 11° SSE
Meteor 1-20 Rocket 4.2 00:51:51 10° N 00:57:27 77° E 01:02:55 10° SSE
Cosmos 1844 Rocket 4.4 00:52:35 10° SW 00:57:41 37° WNW 01:02:51 10° N
IRS-1A Rocket 4.4 00:52:37 10° SSE 00:58:23 76° ENE 01:04:16 10° N
Cosmos 2278 Rocket 2.7 00:53:59 10° S 00:59:09 39° ESE 01:04:23 10° NE
Cosmos 1782 3.0 00:55:55 10° SSE 00:59:45 49° E 01:03:37 10° NNE
SJ 16-02 2.5 00:59:40 12° SSE 01:02:50 23° E 01:06:20 10° NE
Cosmos 1812 4.0 01:02:33 15° SE 01:04:40 23° E 01:07:46 10° NE
Sich 1 3.2 01:01:08 10° N 01:05:30 78° W 01:09:52 10° S
Cosmos 2084 4.3 01:06:08 10° SW 01:10:10 53° NW 01:14:18 10° NNE
Landsat 7 4.5 01:06:59 15° SE 01:10:28 39° ENE 01:14:52 10° N
Intercosmos 24 4.3 01:07:04 10° SSW 01:10:43 58° W 01:14:16 10° N
SJ-6B 3.8 01:07:13 10° S 01:10:58 46° W 01:14:49 10° NNW
Meteor 2-17 Rocket 4.5 01:05:03 10° N 01:11:13 70° E 01:17:18 10° SSE
CZ-4C R/B 3.3 01:05:38 10° NNW 01:12:52 58° NE 01:19:33 17° SE
ATLAS 5 CENTAUR R/B 2.7 01:07:54 10° NW 01:13:43 71° WSW 01:19:48 13° SSE
Cosmos 1151 Rocket 3.0 01:11:30 10° S 01:15:51 79° E 01:20:14 10° N
USA 305 4.2 01:14:35 10° NW 01:18:25 31° NNE 01:21:35 13° E
NOSS 3-3 (A) 4.3 01:14:29 10° SW 01:20:07 65° NW 01:26:32 10° NNE
NOSS 3-3 (C) 4.3 01:14:35 10° SW 01:20:14 66° NW 01:26:39 10° NNE
SPOT 1/Viking Rocket 4.2 01:22:52 20° SE 01:26:00 40° ENE 01:30:50 10° N
ATLAS 2AS CENTAUR R/B 4.2 01:20:36 10° NNW 01:26:39 26° NE 01:32:16 10° E
IGS 5A 3.4 01:27:12 21° SSE 01:29:50 69° ENE 01:33:59 10° N
Cosmos 1709 Rocket 4.0 01:24:54 10° N 01:31:02 88° W 01:36:46 12° S
BREEZE M DEB (TANK) 4.1 01:27:30 10° WNW 01:31:29 23° N 01:33:35 10° NE
Cosmos 1833 Rocket 2.8 01:31:06 10° NNW 01:36:43 62° ENE 01:39:57 25° SE
USA 306 3.8 01:33:58 10° NW 01:38:01 40° NNE 01:40:20 22° E
Cosmos 1500 3.0 01:36:18 10° N 01:40:03 75° E 01:41:40 32° SSE
SPOT 3 Rocket 3.5 01:37:38 20° SSE 01:41:19 90° ENE 01:46:30 10° NNW
CZ-2C R/B 3.6 01:36:48 10° NNE 01:41:19 69° ESE 01:44:53 16° S
SWARM A 4.4 01:39:31 10° N 01:42:46 52° E 01:43:24 43° SE
Cosmos 773 Rocket 4.1 01:38:21 10° NNW 01:43:38 74° WSW 01:47:06 22° S
Cosmos 2228 Rocket 4.0 01:43:57 27° ESE 01:44:36 28° E 01:48:25 10° NNE
Resurs 01 Rocket 1.8 01:41:39 20° S 01:44:43 71° WSW 01:49:11 10° NNW
Akebono 4.0 01:42:54 10° NNW 01:44:48 68° NNW 01:44:48 68° NNW
Cosmos 1538 Rocket 4.1 01:42:23 10° NNW 01:47:42 63° ENE 01:50:14 30° SE
GPS 2-04 Rocket1 3.2 01:44:42 10° WSW 01:48:35 40° S 01:49:13 37° SSE
Meteor 1-5 Rocket 4.1 01:44:18 10° N 01:49:37 66° ENE 01:52:15 30° SSE
Spot 2 Rocket 3.8 01:47:58 30° SE 01:50:08 49° ENE 01:54:59 10° N
ERS-1 Rocket 3.9 01:49:56 26° ESE 01:51:40 33° ENE 01:56:08 10° N
CRYOSAT 2 4.4 01:49:10 21° S 01:52:27 84° W 01:57:22 10° N
X-37B 1.7 01:51:24 10° W 01:54:16 30° SSW 01:54:18 30° SSW
deb Kosmos-1763 4.0 01:51:29 10° NNW 01:55:01 65° ENE 01:55:36 53° ESE
Cosmos 1515 Rocket 3.5 01:53:19 21° S 01:56:17 85° W 02:00:41 10° N
Cosmos 2297 4.5 02:00:18 30° ESE 02:00:45 30° ESE 02:05:38 10° NE
Delta 2 Rocket 3.9 01:57:39 10° WSW 02:02:27 45° S 02:03:03 42° SSE
Meteor 1-10 Rocket 4.1 02:00:51 25° S 02:04:10 74° E 02:09:50 10° NNE
Cosmos 1633 Rocket 4.5 02:00:39 10° NNW 02:04:40 35° W 02:07:59 14° SSW
Cosmos 1869 Rocket 4.4 02:00:59 10° NNE 02:04:54 32° ENE 02:05:16 32° E
JB-3 4.2 02:01:26 10° NNE 02:05:15 59° E 02:05:36 55° SE
USA 307 3.2 02:01:27 10° NW 02:05:41 59° NE 02:06:53 41° E
Cosmos 1271 Rocket 2.7 02:11:53 47° SSW 02:13:00 86° W 02:17:02 10° N
Terra 2.5 02:17:08 36° E 02:17:53 39° ENE 02:22:18 10° N
USA 308 2.9 02:15:08 10° NW 02:19:26 75° NE 02:20:06 60° E
Cosmos 2082 Rocket 2.2 02:15:54 10° NNW 02:21:32 73° ENE 02:23:13 46° SE
CARTOSAT-1 3.4 02:21:09 60° SSE 02:21:55 87° ENE 02:26:15 10° NNW
H-2A R/B 4.2 02:18:02 10° NNE 02:21:19 37° ENE 02:21:19 37° ENE
ARIANE 5 R/B 2.7 02:31:09 55° SSW 02:31:54 67° WSW 02:36:13 10° NNW
Cosmos 1933 Rocket 4.3 02:29:10 10° NNW 02:33:20 47° W 02:34:30 37° SW
SPOT 5 2.9 02:33:36 56° SSE 02:34:44 83° ENE 02:40:03 10° NNW
COSMOS 2406 4.0 02:29:25 10° NW 02:34:46 44° WSW 02:36:56 31° SSW
Cosmos 1898 Rocket 3.5 02:34:06 57° SE 02:34:50 64° ESE 02:40:07 10° NNE
Cosmos 1943 Rocket 2.4 02:39:12 47° ESE 02:39:12 47° ESE 02:44:28 10° NE
Cosmos 923 Rocket 3.9 02:35:05 10° NNW 02:40:23 81° ENE 02:41:15 62° SE
Cosmos 990 Rocket 3.9 02:39:27 48° SSW 02:40:58 90° ESE 02:46:15 10° NNE
SJ 16-02 3.1 02:37:18 10° SW 02:41:13 30° WNW 02:45:10 10° N
DNEPR-1 R/B 4.1 02:41:13 50° S 02:42:33 65° ESE 02:47:44 10° NE
Cosmos 2278 Rocket 4.0 02:38:20 10° WSW 02:43:17 31° WNW 02:48:16 10° N
Cosmos 1666 4.0 02:41:49 10° NNW 02:45:10 31° W 02:45:30 31° WSW
Iridium 4 Rocket 4.4 02:42:49 27° SSW 02:45:52 54° W 02:51:40 10° N
Meteor 2-12 Rocket 4.4 02:43:24 10° N 02:49:28 77° W 02:51:13 48° S
Cosmos 2369 Rocket 3.4 02:51:16 26° ENE 02:51:16 26° ENE 02:54:40 10° NE
Cosmos 1733 Rocket 4.2 02:48:32 10° N 02:51:43 31° NE 02:51:43 31° NE
Meteor 1-27 Rocket 4.0 02:52:26 38° SSW 02:54:44 68° WNW 03:00:39 10° N
USA 305 3.8 02:54:23 10° WNW 02:57:39 41° W 02:57:39 41° W
SL-8 Rocket 4.4 02:53:46 10° N 02:59:49 45° ENE 03:00:36 43° E
Cosmos 158 Rocket 4.5 02:55:24 10° NNW 03:00:03 44° WSW 03:00:36 42° WSW
CZ-4C R/B 4.0 02:54:32 10° NW 03:01:26 37° WSW 03:04:45 27° SSW
Cosmos 1544 4.2 02:59:36 10° N 03:02:04 41° NNW 03:02:04 41° NNW
Cosmos 2084 Rocket 4.3 03:00:02 10° NNW 03:03:54 42° NE 03:03:54 42° NE
NOSS 3-4 (A) 4.1 02:57:55 10° NW 03:04:59 62° WSW 03:07:09 46° S
NOSS 3-4 (C) 4.1 02:58:01 10° NW 03:05:06 63° WSW 03:07:15 47° S
Cosmos 1340 Rocket 3.4 03:02:13 10° N 03:05:30 56° NNW 03:05:30 56° NNW
Cosmos 1238 Rocket 3.9 03:01:12 10° N 03:06:55 52° ENE 03:06:55 52° ENE
Cosmos 1743 3.7 03:03:46 10° N 03:06:30 44° N 03:06:30 44° N
Meteor 1-19 Rocket 4.4 03:12:03 53° ENE 03:12:03 53° ENE 03:16:52 10° NNE
Cosmos 2154 Rocket 4.5 03:10:42 10° NNW 03:16:48 53° W 03:18:30 41° SW
ATLAS 2AS CENTAUR R/B 2.6 03:11:13 10° NW 03:18:31 83° WSW 03:19:41 64° SSE
Cosmos 2112 Rocket 4.0 03:13:36 10° NNW 03:18:57 72° WSW 03:19:01 72° WSW
Cosmos 1536 4.4 03:21:36 10° NNW 03:24:37 30° WNW 03:24:37 30° WNW
Cosmos 962 Rocket 4.4 03:20:39 10° N 03:26:46 76° W 03:27:28 68° SSW
Cosmos 1959 Rocket 4.5 03:22:46 10° N 03:28:55 62° E 03:29:12 61° E
Meteor 2-4 Rocket 4.3 03:30:52 44° ENE 03:30:52 44° ENE 03:35:33 10° NNE
ERS-1 Rocket 4.4 03:29:55 27° WSW 03:30:26 28° W 03:34:44 10° NW
Cosmos 1937 Rocket 4.0 03:33:12 49° W 03:33:49 52° WNW 03:38:52 10° N
Cosmos 1862 Rocket 4.4 03:35:48 47° N 03:35:48 47° N 03:38:56 10° N
Cosmos 1975 4.4 03:37:40 10° N 03:39:56 32° NNE 03:39:56 32° NNE
RESURS DK-1 4.3 03:44:25 10° N 03:47:03 25° NNE 03:47:03 25° NNE
Cosmos 2181 Rocket 4.0 03:53:39 63° WSW 03:54:12 66° W 04:00:18 10° N
Terra 3.7 03:56:01 21° W 03:56:01 21° W 03:59:22 10° NW
Milstar 3 4.3 03:48:39 10° WSW 03:56:12 31° SW 03:56:12 31° SW
Cosmos 1821 Rocket 4.5 03:54:32 10° N 04:00:44 49° ENE 04:00:53 49° E
Cosmos 2366 rocket 3.9 03:54:44 10° N 04:00:55 75° W 04:01:02 74° WSW
Cosmos 2082 Rocket 4.3 04:01:55 10° WNW 04:04:54 15° W 04:05:04 15° W
Cosmos 1607 3.9 04:12:57 77° W 04:13:16 80° WNW 04:19:48 10° NNE
ALOS 2 3.9 04:14:52 39° N 04:14:52 39° N 04:17:44 10° N
Centaur D AC-29 4.3 03:54:55 10° WSW 04:19:09 33° SW 04:19:09 33° SW
Cosmos 1943 Rocket 3.9 04:20:39 20° W 04:23:03 26° NW 04:27:42 10° N
SeaSat 1 4.3 04:19:17 10° NE 04:21:16 20° ENE 04:21:16 20° ENE
ATLAS CENTAUR R/B 3.7 04:30:12 18° NNE 04:30:12 18° NNE 04:31:21 10° NNE
Cosmos 2369 Rocket 3.2 04:33:00 37° WNW 04:33:42 38° WNW 04:38:58 10° N
Cosmos 1656 Rocket 4.1 04:38:22 54° NW 04:38:22 54° NW 04:43:28 10° NNE
Nadezhda 3 Rocket 3.9 04:41:02 78° NW 04:41:02 78° NW 04:47:04 10° N
BREEZE-M DEB (TANK) 3.9 04:32:33 10° WNW 04:43:38 76° NNW 04:43:38 76° NNW
Lacrosse 5 3.3 04:48:12 30° ENE 04:48:12 30° ENE 04:50:49 10° NE
Cosmos 1125 Rocket 4.2 04:54:49 50° NW 04:54:49 50° NW 04:59:10 10° N
USA 215 4.2 04:51:52 12° E 04:57:34 45° NNE 05:03:43 10° NW
Cosmos 1605 Rocket 4.3 05:00:28 10° N 05:06:38 56° E 05:06:53 55° E
EO 1 Delta rocket 4.4 05:18:58 69° N 05:18:58 69° N 05:24:18 10° N
Cosmos 2227 Rocket 4.4 05:20:51 10° N 05:25:02 21° NE 05:29:10 10° E
Cosmos 2297 Rocket 3.9 05:23:08 10° N 05:27:55 27° NE 05:30:43 19° E
ISS -0.4 05:30:16 10° NNW 05:31:54 13° N 05:33:33 10° NNE
USA 81 4.3 05:27:10 10° N 05:31:39 65° N 05:31:39 65° N
NOSS 2-1 (C) 4.3 05:31:02 10° NW 05:36:00 82° NW 05:36:00 82° NW
Cosmos 1934 Rocket 4.4 05:36:39 10° NNW 05:41:59 47° WNW 05:41:59 47° WNW
NOSS 2-1 (D) 4.4 05:37:52 10° NW 05:42:38 73° WNW 05:42:38 73° WNW
Cosmos 1656 4.3 05:45:16 44° E 05:45:16 44° E 05:49:55 10° NE
Cosmos 2344 4.5 05:43:37 10° NW 05:53:28 65° WSW 05:58:24 42° S
Cosmos 1707 4.5 05:58:22 31° NNE 05:58:22 31° NNE 06:00:32 10° NNE
Okean 1 Rocket 4.0 05:54:23 10° N 05:57:25 44° N 05:57:25 44° N
SeaSat 1 3.4 05:56:31 10° N 06:01:02 38° NW 06:01:02 38° NW
COSMOS 2455 3.0 05:57:04 10° NNW 06:03:05 69° ENE 06:04:25 53° ESE
CZ-4 R/B 4.2 06:02:40 10° N 06:06:47 60° NNW 06:06:47 60° NNW
Meteor 2-20 4.4 06:07:18 65° W 06:07:34 66° W 06:13:42 10° N
Cosmos 371 Rocket 3.7 06:10:20 57° ENE 06:10:20 57° ENE 06:14:37 10° NNE
Cosmos 1727 Rocket 3.9 06:09:20 68° WSW 06:09:48 71° W 06:16:09 10° N
Helios 1B rocket 3.7 06:08:21 10° NNE 06:11:27 36° ENE 06:11:27 36° ENE
Cosmos 2219 3.8 06:07:06 10° NNW 06:12:41 52° ENE 06:14:52 34° ESE
SL-16 R/B 2.9 06:15:31 37° SE 06:17:57 59° ENE 06:24:06 10° N
ADEOS II 3.4 06:20:05 10° NE 06:24:42 31° E 06:25:56 28° ESE
Lacrosse 4 Rocket 2.8 06:26:20 34° E 06:26:20 34° E 06:29:53 10° NE
Lacrosse 5 3.5 06:27:22 23° WNW 06:29:04 28° NNW 06:33:28 10° NNE
Cosmos 1953 3.3 06:25:17 10° N 06:28:48 43° ENE 06:28:48 43° ENE
NPP 3.8 06:26:27 10° NNE 06:31:49 64° ESE 06:32:31 58° SE
AQUA 4.3 06:27:23 10° NNE 06:32:01 49° E 06:32:19 48° ESE
CZ-2D R/B 2.0 06:27:12 10° NNE 06:32:38 80° ESE 06:33:07 72° SSE
Cosmos 1455 Rocket 3.2 06:32:23 10° N 06:36:33 67° ENE 06:36:33 67° ENE
Resurs 1-4 Rocket 1.9 06:33:30 10° NNE 06:38:47 87° WNW 06:39:15 75° SSW
USA 215 3.2 06:39:06 51° S 06:40:25 60° SW 06:46:53 10° NW
MOZ.5/SAFIR/RUBIN 5/SL-8 4.4 06:42:26 43° WNW 06:42:26 43° WNW 06:46:00 10° NNW
Cosmos 1725 Rocket 4.3 06:35:58 10° N 06:42:11 64° E 06:44:56 34° SSE
Cosmos 2360 4.4 06:42:06 52° SSE 06:43:09 61° ESE 06:48:48 10° NNE
Cosmos 1697 Rocket 2.6 06:42:23 62° SSE 06:43:13 73° ESE 06:48:49 10° NNE
Meteor 1-29 4.3 06:42:08 10° NNE 06:44:36 38° ENE 06:44:36 38° ENE
Cosmos 1459 Rocket 3.9 06:40:16 10° NNW 06:46:27 69° W 06:47:34 57° SW
Meteor 1-16 Rocket 4.3 06:41:35 10° N 06:47:33 79° E 06:49:29 44° SSE
Cosmos 1674 3.2 06:50:39 54° N 06:50:39 54° N 06:53:43 10° N
Cosmos 1726 4.4 06:47:43 10° NW 06:48:44 16° NW 06:48:44 16° NW
USA 281 3.1 06:49:16 49° SSW 06:50:55 64° WSW 06:57:27 10° NNW
GP-B 4.4 06:47:45 10° NNE 06:51:50 35° E 06:53:21 27° SE
Cosmos 1980 Rocket 2.8 06:54:10 36° SSE 06:55:52 47° ESE 07:01:18 10° NE
Cosmos 2016 Rocket 3.9 06:50:05 10° N 06:56:22 85° W 06:58:27 45° S
Meteor 2-11 Rocket 4.4 06:51:06 10° NNW 06:57:15 73° W 06:58:54 49° SSW
SL-14 R/B 4.1 06:59:18 42° ESE 06:59:44 43° E 07:03:30 10° NNE
Cosmos 2173 Rocket 4.2 06:56:42 10° NNW 07:02:38 49° W 07:03:45 44° WSW
Cosmos 2061 Rocket 3.9 06:59:51 10° N 07:06:12 77° W 07:08:42 40° S
Timation 2 Rocket 3.8 07:00:36 10° NNW 07:06:29 63° WSW 07:08:17 44° S
Cosmos 1626 2.1 07:07:59 75° N 07:07:59 75° N 07:11:25 10° N
Cosmos 1975 Rocket 3.9 07:08:32 35° WNW 07:08:32 35° WNW 07:12:16 10° N
Cosmos 2227 Rocket 2.1 07:03:57 10° NNW 07:09:32 63° WSW 07:10:57 47° SSW
TSX-5 4.2 07:05:59 10° NNW 07:08:44 50° NW 07:08:44 50° NW
ISS -1.1 07:06:56 10° NNW 07:09:40 22° NNE 07:12:24 10° ENE
UNK 4.0 07:11:24 49° W 07:11:24 49° W 07:15:42 10° NNW
Cosmos 1315 Rocket 4.4 07:08:12 10° NNW 07:10:25 24° WNW 07:10:25 24° WNW
Cosmos 2297 Rocket 2.5 07:06:46 10° NW 07:12:08 45° WSW 07:12:27 44° WSW
Cosmos 2285 Rocket 4.2 07:10:17 34° S 07:13:09 66° ESE 07:19:32 10° NNE
Cosmos 304 Rocket 3.9 07:13:22 52° WSW 07:14:04 58° WNW 07:18:49 10° NNE
Cosmos 2056 Rocket 3.5 07:13:38 46° S 07:15:08 73° ESE 07:20:15 10° NNE
DELTA 2 DEB (DPAF) 4.2 07:14:05 37° SSE 07:15:49 75° ENE 07:20:17 10° N
Cosmos 2369 3.6 07:14:44 46° SSW 07:16:32 81° WNW 07:22:18 10° NNE
Cosmos 2278 4.0 07:15:39 36° S 07:17:56 63° ESE 07:23:36 10° NNE
ARGOS Delta rocket 3.9 07:14:18 10° N 07:18:56 64° WNW 07:20:01 49° SW
SL-19 R/B 4.4 07:15:34 10° N 07:20:59 55° WNW 07:22:31 41° WSW
Cosmos 1023 Rocket 4.5 07:16:58 10° NNW 07:22:14 86° ENE 07:25:58 20° SSE
Cosmos 1300 3.5 07:19:24 10° N 07:23:07 49° E 07:24:55 26° SE
Cosmos 2082 3.6 07:19:30 10° NNW 07:25:15 90° SE 07:30:58 10° SSE
Cosmos 1371 Rocket 3.9 07:26:14 43° SW 07:27:57 76° WNW 07:33:10 10° NNE
OAO 2 Rocket 3.9 07:29:24 38° SSW 07:30:10 41° S 07:35:09 10° ESE
SL-16 R/B 4.0 07:26:57 10° SSE 07:31:27 25° ESE 07:35:58 10° NE
Cosmos 1025 Rocket 3.6 07:31:57 37° W 07:32:24 39° WNW 07:36:31 10° N
IRS-1D 3.6 07:33:11 10° N 07:38:31 69° WNW 07:40:55 33° SSW
Cosmos 1140 Rocket 3.4 07:34:46 10° NNW 07:39:58 68° WSW 07:43:34 20° S
Iridium 2 3.7 07:42:04 49° SW 07:42:51 63° W 07:46:39 10° N
IDEFIX/ARIANE 42P 2.6 07:40:23 10° NNE 07:45:41 87° ESE 07:48:54 25° SSW
Helios 1B rocket 4.3 07:44:34 10° NNW 07:47:10 16° WNW 07:47:45 16° WNW
COSMOS 2455 4.3 07:44:24 10° WNW 07:47:29 18° W 07:47:29 18° W
Cosmos 1340 2.5 07:49:44 39° SSW 07:51:01 79° W 07:54:47 10° N
Meteor 1-28 Rocket 3.4 07:53:43 39° SW 07:54:35 47° W 07:58:11 10° NNW
IUS-18 SRM-1 4.4 07:55:12 15° S 07:55:47 15° SSE 07:59:33 10° SE
Cosmos 2219 4.4 07:52:09 10° NW 07:56:24 22° W 07:56:43 22° WSW
Meteor 2-10 Rocket 4.1 07:52:40 10° N 07:58:20 64° ENE 08:03:45 10° SSE
Cosmos 2322 Rocket 3.7 07:53:42 10° SSE 07:58:40 33° ESE 08:03:40 10° NE
SL-16 R/B 3.7 08:00:36 20° WSW 08:01:54 22° W 08:06:36 10° NW
ADEOS II 3.0 07:59:42 10° N 08:04:21 33° WNW 08:06:52 21° WSW
NOSS 3-2 (A) 4.0 08:00:10 15° S 08:04:24 46° ESE 08:10:14 10° NE
Lacrosse 4 Rocket 3.0 08:02:37 19° W 08:04:34 25° NW 08:08:14 10° N
Cosmos 2263 Rocket 2.7 07:59:10 10° NNW 08:04:47 64° ENE 08:10:25 10° SE
Cosmos 1953 4.5 08:03:22 10° WNW 08:04:27 12° WNW 08:04:27 12° WNW
Cosmos 1190 Rocket 4.3 08:00:09 10° NNW 08:05:08 47° WSW 08:09:34 13° S
Meteor 1-24 Rocket 3.7 08:01:33 21° SSW 08:05:15 67° W 08:10:39 10° N
ARIANE 5 R/B 2.6 08:00:15 10° NNE 08:05:25 78° ESE 08:09:44 14° S
IRS-P3 4.1 08:00:11 10° NNE 08:05:33 82° WNW 08:09:39 18° SSW
Cosmos 1420 Rocket 4.2 08:07:40 23° SW 08:10:46 56° WNW 08:15:53 10° N
Cosmos 1726 Rocket 4.1 08:06:53 10° N 08:11:14 60° E 08:15:34 10° SSE
Cosmos 1606 Rocket 3.7 08:06:54 10° N 08:11:19 79° E 08:15:44 10° S
CZ-2D R/B 4.1 08:09:11 10° NNW 08:11:56 14° WNW 08:14:26 11° W
Cosmos 2228 2.9 08:09:02 10° N 08:13:20 81° W 08:17:38 10° S
Lacrosse 5 4.5 08:11:15 10° NW 08:13:37 13° N 08:16:00 10° NNE
CZ-4B R/B 3.5 08:11:04 10° N 08:16:05 79° WNW 08:20:30 14° SSW
Resurs 1-4 Rocket 4.2 08:15:57 10° NW 08:17:46 12° WNW 08:19:37 10° W
USA 238 DEB 4.4 08:12:04 10° S 08:18:14 48° ESE 08:24:40 10° NE
USA 238 4.4 08:12:11 10° S 08:18:20 47° ESE 08:24:46 10° NE
ADEOS Rocket 3.9 08:12:27 10° SSW 08:19:27 45° W 08:26:52 10° NNW
Cosmos 2360 Rocket 4.0 08:16:42 10° SSE 08:21:26 28° ESE 08:26:12 10° NE
Cosmos 1513 Rocket 4.4 08:18:27 10° N 08:24:39 80° W 08:30:43 10° S
Meteor 2-5 Rocket 4.5 08:21:35 18° SW 08:25:14 36° WNW 08:30:24 10° N
Cosmos 1697 Rocket 4.5 08:24:06 10° W 08:27:46 18° NW 08:31:34 10° N
Cosmos 676 Rocket 4.2 08:23:59 10° NNW 08:29:02 48° WSW 08:34:06 10° S
Cosmos 1464 Rocket 3.9 08:23:53 10° N 08:30:04 79° W 08:36:17 10° S
Atlas Centaur 2 3.8 08:28:29 13° SW 08:33:27 26° SSE 08:38:36 10° ESE
Cosmos 405 3.8 08:32:16 10° NNW 08:35:24 31° W 08:38:01 13° SSW
Cosmos 292 Rocket 4.1 08:32:03 15° SW 08:35:59 54° WNW 08:40:46 10° N
Aureole 2 Rocket 2.4 08:35:33 10° NW 08:38:00 33° WSW 08:40:28 10° S
Cosmos 1980 Rocket 3.5 08:35:56 12° WSW 08:40:05 26° NW 08:44:49 10° N
CENTAUR R/B 2.9 08:34:44 10° SSW 08:40:16 59° ESE 08:46:51 10° NE
Cosmos 2034 Rocket 4.1 08:33:56 10° N 08:40:19 88° E 08:46:36 10° S
Cosmos 2227 4.2 08:40:34 10° NNW 08:46:10 67° WSW 08:51:43 10° S
ISS -3.8 08:43:23 10° WNW 08:46:45 68° SW 08:50:06 10° SE
PAYLOAD A 3.8 08:45:01 10° NNE 08:49:44 83° WNW 08:54:25 10° SSW
Cosmos 1331 Rocket 4.1 08:48:47 10° SSW 08:53:55 82° ESE 08:59:07 10° NNE
Cosmos 1452 Rocket 4.1 08:49:50 10° SW 08:54:49 43° WNW 08:59:52 10° N
Aureole 1 Rocket 2.9 08:52:33 10° NNW 08:56:02 78° ENE 09:00:26 10° SSE
CZ-2D R/B 4.2 08:52:53 10° N 08:57:02 40° WNW 09:01:08 10° SW
Cosmos 1184 Rocket 3.7 08:56:12 10° S 08:59:16 48° E 09:02:23 10° NNE
FENGYUN 3A 3.9 08:57:44 10° NNE 09:03:08 76° ESE 09:08:31 10° S
Spot 4 Rocket 4.4 09:01:16 10° N 09:06:11 47° WNW 09:11:05 10° SW
CZ-2C R/B 2.6 09:01:11 10° N 09:06:16 63° WNW 09:11:23 10° SSW
ASTEX 1 4.3 09:02:40 10° SSE 09:07:30 55° E 09:12:23 10° N
Cosmos 1346 Rocket 3.8 09:04:52 10° SW 09:08:18 29° WNW 09:11:46 10° NNW
Cosmos 389 Rocket 2.7 09:05:49 10° NNW 09:09:11 46° W 09:12:29 10° S
PSLV R/B 3.6 09:05:02 10° NNE 09:09:15 87° ESE 09:13:27 10° SSW
ALOS 2.4 09:07:03 10° NNE 09:11:44 86° E 09:16:24 10° SSW
